STARLINK-30553, 58056

Orbit data source: Space-Track

STARLINK-30553, 58056 is a payload satellite owned by SpaceX/Seattle (US) in LEO that was launched on Fri, 13 Oct 2023 UTC via an FALCON 9 launch vehicle from the Air Force Eastern Test Range (AFETR). Payload-class satellites include a variety of spacecraft equipped with specific instruments for various scientific and technological missions. These include communications satellites like Starlink; space stations such as the ISS; scientific satellites like the Hubble; Earth observation satellites from companies like Planet Labs, Umbra, and HawkEye 360; GPS; miniature CubeSats for education and research; and military/defense satellites.

Loading next visibility...
Identifier
58056, 2023-158F
Orbit
LEO
Country
Flag of USUS
Related business
Manufacturer
SpaceX/Seattle
Mission
Operational Commercial Communications
Bus & Motor
STARLINK V2M, Unknown motor
Mass
730 kg wet, ~700 kg dry
Launch date (UTC)
2023-10-13 (3 years ago)
Launch vehicle
FALCON 9
Launch site
Air Force Eastern Test Range (AFETR)
Object type
Payload
Rocket body
Debris
Shape & HBR
Box + 2 Pan, 17.7 m
Radar Cross Section
33.884 m², Large (>1 m²)

Expand to show TLE details & history
Last TLE update: 2 days ago

TLE from 2 days ago
0 STARLINK-30553
1 58056U 23158F   26171.03340540  .00000498  00000-0  27621-4 0  9992
2 58056  43.0029 168.9365 0000921 264.5217  95.5530 15.27576495149227
Epoch: 2026-06-20T00:48Z
TLE epoch observation values (Epoch: 2026-06-20T00:48:06.226Z)
Latitude
Longitude
-111.34328°
Altitude
482.897 km
Speed
7.626 km/s
True Right ascension
11h 15m 44s
True Declination
0° 00' 00"
Sunlit
Object was in daylight at epoch
Visualization orbit readout
Latitude
Unknown
Longitude
Unknown
Altitude
Unknown
Speed
Unknown
Apparent Right ascension
Unknown
Apparent Declination
Unknown
Sunlit
N/A
Visualization observer readout
Local Sidereal Time
21:31:16
Azimuth
Unknown
Elevation
Unknown
Doppler factor
Unknown
Orbital elements
Apogee altitude
485.636 km
Perigee altitude
484.372 km
Semi-major axis
6,863.141 km
Eccentricity
0.00009
Inclination
43.0029°
RAAN
168.9365°
Arg. of periapsis
264.5217°
True anomaly
95.5635°
Mean anomaly
95.553°
Eccentric anomaly
95.55825°
Mean motion
3.81732 °/min
Orbital period
94.31 mins
BSTAR
0.000027621
Loading maneuver chart data...
Computing Atmospheric mass density...
Loading historical data...
Loading historical data...
Loading historical data...
Loading historical data...
Loading historical data...
Loading historical data...
Loading historical data...

Documentation

Showing up to 5 results
|